Location: Unspecified
(0.0000°N, 0.0000°E)
Time: 12:41:00
(UTC+00:00)

Vanguard 1 Rocket - Pass Details

Date: 14 December 2017
Orbit: 656 x 4222 km, 34.3° (Epoch: 20 January)

Event Time Altitude Azimuth Distance (km) Brightness Sun altitude
Rises 21:37:20 0° 320° (NW) 6,787 11.9 -49.3°
Reaches altitude 10° 21:42:03 10° 329° (NNW) 6,207 11.5 -50.2°
Enters shadow 21:47:04 20° 340° (NNW) 5,727 11.2 -51.2°
Exits shadow 22:28:25 - 99° (E) 7,497 11.9 -58.6°
Sets 22:30:30 0° 102° (ESE) 7,767 12.0 -59.0°
